Regional Weather Roundup
Issued by NWS Kansas City/Pleasant Hill, MO

Home | Current Version | Previous Version | Text Only | Print | Product List | Glossary On
Versions: 1 2 3 4 5 6 7 8 9 10 11 12 13 14 15 16 17 18 19 20 21 22 23 24 25 26 27 28 29 30 31 32 33 34 35 36 37 38 39 40 41 42 43 44 45 46 47 48 49 50
000
ASUS43 KEAX 171010
RWREAX

WEATHER ROUNDUP FOR EASTERN KANSAS AND NORTHWEST MISSOURI
NATIONAL WEATHER SERVICE KANSAS CITY/PLEASANT HILL MO
400 AM CST SUN DEC 17 2017

KSZ040-057-103>105-MOZ028-029-037-043-171100-
...KANSAS CITY METROPOLITAN AREA...

CITY           SKY/WX    TMP DP  RH WIND       PRES   REMARKS
K.C. INTL      LGT RAIN  44  36  73 S9        29.96F
K.C. DOWNTOWN  LGT RAIN  47  37  68 SW9G21    29.97S
LEES SUMMIT    LGT RAIN  45  34  65 SW10      29.98F
OLATHE - IXD   LGT RAIN  43  41  93 S9        29.98F
OLATHE - OJC   LGT RAIN  42  40  92 SW9       29.97F
LAWRENCE       LGT RAIN  44  39  82 S7        29.97S

$$

MOZ001>008-011>017-020>025-030>033-038>040-044>046-053-054-171100-
...NORTHERN AND CENTRAL MISSOURI...

CITY           SKY/WX    TMP DP  RH WIND       PRES   REMARKS
ST. JOSEPH     LGT RAIN  45  33  63 S8        29.96F
MOSBY          CLOUDY    45  28  53 CALM      29.97F
WARRENSBURG    CLOUDY    46  30  53 S9        29.99F
WHITEMAN AFB   CLOUDY    46  34  64 SW15      29.96F
CLINTON        LGT RAIN  43  39  87 SW6       30.02F
SEDALIA        CLOUDY    48  30  49 S9        30.01F
WARSAW         NOT AVBL
CHILLICOTHE      N/A     46  28  49 S6        29.98F
KIRKSVILLE     CLOUDY    45  31  58 SW7       30.00F

$$

MOZ041-047>049-056>058-063>065-088>090-097-171100-
...EASTERN AND SOUTHERN MISSOURI...

CITY           SKY/WX    TMP DP  RH WIND       PRES   REMARKS
ST. LOUIS INTL CLOUDY    45  30  55 S3        30.08S
SPIRIT OF STL  CLOUDY    42  32  67 CALM      30.08R
COLUMBIA       CLOUDY    45  29  53 S8        30.03F
JEFFERSON CITY CLOUDY    44  30  57 SE6       30.04F
ROLLA          CLOUDY    45  29  53 S10       30.06R
OSAGE BEACH    CLOUDY    45  29  53 S6        30.04F
SPRINGFIELD    RAIN      41  40  96 S10       30.02F FOG     WCI  35
BRANSON        LGT RAIN  39  39 100 E8        30.04F WCI  34
JOPLIN         LGT RAIN  42  42 100 SE5       30.02S FOG
WEST PLAINS    LGT RAIN  41  39  93 S5        30.09F

$$

IAZ060-094-KSZ022-034>040-054-083-096-NEZ052-066-093-171100-
...KANSAS...SOUTHEAST NEBRASKA AND IOWA...

CITY           SKY/WX    TMP DP  RH WIND       PRES   REMARKS
TOPEKA         LGT RAIN  44  42  93 S5        29.96F
MANHATTAN      LGT RAIN  44  41  89 SW5       29.95R
EMPORIA        LGT RAIN  42  41  96 S6        29.95F
CHANUTE        LGT RAIN  43  42  97 S10       29.99S FOG
WICHITA        CLOUDY    43  42  97 S9        29.91F
OMAHA          CLOUDY    30  24  78 N9        29.97S WCI  22
LINCOLN        CLOUDY    33  27  78 N10       29.98R WCI  25
FALLS CITY     LGT RAIN  39  29  67 S5        29.95R
LAMONI         MOCLDY    39  26  59 SE8       29.96F WCI  33
DES MOINES     CLOUDY    31  24  75 NE5       29.98S WCI  26

$$




USA.gov is the U.S. government's official web portal to all federal, state and local government web resources and services.